85.6000; 115.3000;1; 254.429; 277.061;2005.09.19 06:00:00; -10.2;1002.7;   6.0; 140.0;    .000;    .000;   0.000; 90;
85.7000; 115.0000;2; 253.748; 276.188;2005.09.19 12:00:00;  -6.9;1001.7;   4.0; 150.0;  11.404;    .250;   1.901;347;
85.7000; 115.0000;2; 253.748; 276.188;2005.09.19 18:00:00;  -6.6; 999.4;   4.0; 140.0;  11.404;    .500;   0.000; 90;
85.7000; 115.0000;2; 253.748; 276.188;2005.09.20 06:00:00;  -2.8;1000.2;  12.0; 150.0;  11.404;   1.000;   0.000; 90;
85.7000; 115.0000;2; 253.748; 276.188;2005.09.20 12:00:00;  -2.8;1003.7;  12.0; 150.0;  11.404;   1.250;   0.000; 90;
85.8000; 112.5000;2; 251.482; 276.006;2005.09.20 18:00:00;  -3.3;1005.1;  11.0; 130.0;  34.812;   1.500;   3.901;298;
85.8000; 112.5000;2; 251.482; 276.006;2005.09.21 00:00:00;  -4.1;1006.2;  10.0; 130.0;  34.812;   1.750;   0.000; 90;
85.8000; 112.5000;2; 251.482; 276.006;2005.09.21 06:00:00;  -3.9;1005.0;  10.0; 130.0;  34.812;   2.000;   0.000; 90;
85.9000; 110.9000;2; 249.921; 275.465;2005.09.21 12:00:00;  -3.3;1005.8;  10.0; 140.0;  51.823;   2.250;   2.835;311;
86.0000; 110.3000;2; 249.113; 274.615;2005.09.21 18:00:00;  -4.0;1005.5;  10.0; 140.0;  63.899;   2.500;   2.013;337;
86.0000; 110.3000;2; 249.113; 274.615;2005.09.22 00:00:00;  -5.8;1005.7;  10.0; 130.0;  63.899;   2.750;   0.000; 90;
86.0000; 110.3000;2; 249.113; 274.615;2005.09.22 06:00:00;  -5.2;1004.2;   9.0; 120.0;  63.899;   3.000;   0.000; 90;
86.0000; 110.3000;2; 249.113; 274.615;2005.09.22 06:00:00;  -6.7;1003.3;  10.0; 120.0;  63.899;   3.000;   0.000; 90;
86.0000; 107.8000;2; 247.333; 275.230;2005.09.22 18:00:00;  -5.1;1000.9;   9.0; 100.0;  83.289;   3.500;   1.616;270;
86.0000; 107.8000;2; 247.333; 275.230;2005.09.23 00:00:00;  -3.8; 999.9;   9.0; 110.0;  83.289;   3.750;   0.000; 90;
86.0000; 107.8000;2; 247.333; 275.230;2005.09.23 06:00:00;  -2.4; 997.9;   8.0; 140.0;  83.289;   4.000;   0.000; 90;
86.0000; 107.8000;2; 247.333; 275.230;2005.09.23 12:00:00;  -2.9; 997.9;   9.0; 110.0;  83.289;   4.250;   0.000; 90;
86.0000; 105.5000;2; 245.674; 275.726;2005.09.23 18:00:00;  -2.3; 993.4;  17.0; 120.0; 101.128;   4.500;   2.973;270;
86.0000; 105.5000;2; 245.674; 275.726;2005.09.24 00:00:00;  -2.4; 993.8;  10.0; 140.0; 101.128;   4.750;   0.000; 90;
86.0000; 105.5000;2; 245.674; 275.726;2005.09.24 06:00:00;  -8.2; 998.2;   6.0; 170.0; 101.128;   5.000;   0.000; 90;
86.0000; 105.5000;2; 245.674; 275.726;2005.09.24 12:00:00;  -8.4;1002.5;   5.0; 140.0; 101.128;   5.250;   0.000; 90;
86.0000; 103.7000;2; 244.362; 276.068;2005.09.24 18:00:00;  -9.9;1003.7;   5.0; 130.0; 115.089;   5.500;   2.327;270;
86.0000; 103.7000;2; 244.362; 276.068;2005.09.25 00:00:00;  -7.6;1002.3;   3.0;   0.0; 115.089;   5.750;   0.000; 90;
86.0000; 103.7000;2; 244.362; 276.068;2005.09.25 06:00:00;  -8.0;1001.0;   2.0; 300.0; 115.089;   6.000;   0.000; 90;
86.0000; 103.7000;2; 244.362; 276.068;2005.09.25 12:00:00; -11.0;1001.3;   2.0; 280.0; 115.089;   6.250;   0.000; 90;
86.1000; 102.9000;2; 243.534; 275.154;2005.09.25 18:00:00;  -8.3;1001.3;   3.0; 160.0; 127.785;   6.500;   2.116;331;
86.1000; 102.9000;2; 243.534; 275.154;2005.09.26 00:00:00;  -4.9; 999.9;   4.0; 180.0; 127.785;   6.750;   0.000; 90;
86.1000; 102.9000;2; 243.534; 275.154;2005.09.26 06:00:00;  -4.0; 999.4;   6.0; 190.0; 127.785;   7.000;   0.000; 90;
86.1000; 102.9000;2; 243.534; 275.154;2005.09.26 12:00:00;  -4.3; 998.6;   7.0; 200.0; 127.785;   7.250;   0.000; 90;
86.3000; 102.3000;2; 242.644; 273.140;2005.09.26 18:00:00;  -5.5; 998.5;   3.0; 230.0; 150.459;   7.500;   3.779;349;
86.3000; 102.3000;2; 242.644; 273.140;2005.09.27 00:00:00;  -8.6; 998.2;   3.0; 230.0; 150.459;   7.750;   0.000; 90;
86.3000; 102.3000;2; 242.644; 273.140;2005.09.27 06:00:00; -17.1; 999.1;   0.0;   0.0; 150.459;   8.000;   0.000; 90;
86.3000; 102.3000;2; 242.644; 273.140;2005.09.27 12:00:00; -19.2;1000.1;   1.0; 200.0; 150.459;   8.250;   0.000; 90;
86.3000; 102.3000;2; 242.644; 273.140;2005.09.27 18:00:00; -17.1;1000.1;   0.0;   0.0; 150.459;   8.500;   0.000; 90;
86.3000; 102.3000;2; 242.644; 273.140;2005.09.28 00:00:00; -15.4;1000.5;   0.0;   0.0; 150.459;   8.750;   0.000; 90;
86.3000; 102.3000;2; 242.644; 273.140;2005.09.28 06:00:00; -19.5; 999.8;   2.0; 140.0; 150.459;   9.000;   0.000; 90;
86.3000; 102.3000;2; 242.644; 273.140;2005.09.28 12:00:00; -10.4; 998.5;   3.0; 140.0; 150.459;   9.250;   0.000; 90;
86.3000; 101.2000;2; 241.894; 273.296;2005.09.28 18:00:00;  -6.7; 996.6;   5.0; 140.0; 158.352;   9.500;   1.316;270;
86.3000; 101.2000;2; 241.894; 273.296;2005.09.29 00:00:00;  -5.2; 995.1;   5.0; 160.0; 158.352;   9.750;   0.000; 90;
86.3000; 101.2000;2; 241.894; 273.296;2005.09.29 06:00:00;  -4.2; 995.7;   3.0; 200.0; 158.352;  10.000;   0.000; 90;
86.3000; 101.2000;2; 241.894; 273.296;2005.09.29 12:00:00;  -5.3; 997.3;   2.0; 120.0; 158.352;  10.250;   0.000; 90;
86.3000; 100.5000;2; 241.415; 273.388;2005.09.29 18:00:00;  -4.2; 998.2;   4.0; 140.0; 163.375;  10.500;   0.837;270;
86.3000; 100.5000;2; 241.415; 273.388;2005.09.30 00:00:00;  -5.2; 998.9;   5.0; 130.0; 163.375;  10.750;   0.000; 90;
86.3000; 100.5000;2; 241.415; 273.388;2005.09.30 06:00:00;  -5.2; 998.9;   4.0; 100.0; 163.375;  11.000;   0.000; 90;
86.3000; 100.5000;2; 241.415; 273.388;2005.09.30 12:00:00; -11.4; 998.7;   4.0;  30.0; 163.375;  11.250;   0.000; 90;
86.3000;  99.9000;2; 241.004; 273.462;2005.09.30 18:00:00;  -9.8; 998.1;   5.0; 360.0; 167.681;  11.500;   0.718;270;
86.3000;  99.9000;2; 241.004; 273.462;2005.10.01 00:00:00;  -7.8; 999.1;   3.0;  10.0; 167.681;  11.750;   0.000; 90;
86.3000;  99.9000;2; 241.004; 273.462;2005.10.01 06:00:00; -12.4;1001.1;   4.0;  50.0; 167.681;  12.000;   0.000; 90;
86.3000;  99.9000;2; 241.004; 273.462;2005.10.01 12:00:00; -15.0;1004.3;   5.0;  60.0; 167.681;  12.250;   0.000; 90;
86.3000;  99.6000;2; 240.798; 273.498;2005.10.01 18:00:00; -15.2;1006.9;   1.0;  40.0; 169.833;  12.500;   0.359;270;
86.3000;  99.6000;2; 240.798; 273.498;2005.10.02 00:00:00; -17.6;1009.8;   3.0; 100.0; 169.833;  12.750;   0.000; 90;
86.3000;  99.6000;2; 240.798; 273.498;2005.10.02 06:00:00; -17.1;1011.1;   2.0; 200.0; 169.833;  13.000;   0.000; 90;
86.3000;  99.6000;2; 240.798; 273.498;2005.10.02 12:00:00; -18.2;1012.7;   3.0; 200.0; 169.833;  13.250;   0.000; 90;
86.3000;  99.3000;2; 240.592; 273.532;2005.10.02 18:00:00; -18.4;1013.1;   0.0;   0.0; 171.986;  13.500;   0.359;270;
86.3000;  99.3000;2; 240.592; 273.532;2005.10.03 00:00:00; -18.0;1012.5;   3.0; 100.0; 171.986;  13.750;   0.000; 90;
86.3000;  99.3000;2; 240.592; 273.532;2005.10.03 06:00:00; -17.5;1010.1;   3.0;  80.0; 171.986;  14.000;   0.000; 90;
86.3000;  99.3000;2; 240.592; 273.532;2005.10.03 12:00:00; -15.3;1006.3;   7.0; 100.0; 171.986;  14.250;   0.000; 90;
86.2000;  98.0000;2; 239.847; 274.737;2005.10.03 18:00:00; -14.8;1004.7;   5.0; 210.0; 186.581;  14.500;   2.433;220;
86.2000;  98.0000;2; 239.847; 274.737;2005.10.04 00:00:00; -13.9;1007.8;   3.0; 130.0; 186.581;  14.750;   0.000; 90;
86.2000;  98.0000;2; 239.847; 274.737;2005.10.04 06:00:00; -19.1;1008.2;   2.0;  40.0; 186.582;  15.000;   0.000; 90;
86.2000;  98.0000;2; 239.847; 274.737;2005.10.04 12:00:00;  -7.1;1008.6;   6.0; 120.0; 186.582;  15.250;   0.000; 90;
86.2000;  97.0000;2; 239.137; 274.831;2005.10.04 18:00:00;  -7.2;1008.1;   6.0; 110.0; 193.951;  15.500;   1.228;270;
86.2000;  97.0000;2; 239.137; 274.831;2005.10.05 00:00:00;  -8.8;1006.8;   6.0; 120.0; 193.951;  15.750;   0.000; 90;
86.2000;  97.0000;2; 239.137; 274.831;2005.10.05 06:00:00; -13.4;1008.7;   4.0;  80.0; 193.951;  16.000;   0.000; 90;
86.2000;  97.0000;2; 239.137; 274.831;2005.10.05 12:00:00; -10.3;1008.9;   4.0; 120.0; 193.951;  16.250;   0.000; 90;
86.2000;  96.0000;2; 238.426; 274.912;2005.10.05 18:00:00; -15.1;1007.9;   5.0; 130.0; 201.321;  16.500;   1.228;270;
86.2000;  96.0000;2; 238.426; 274.912;2005.10.06 00:00:00; -17.9;1008.6;   3.0; 120.0; 201.321;  16.750;   0.000; 90;
86.2000;  96.0000;2; 238.426; 274.912;2005.10.06 06:00:00; -21.9;1008.1;   3.0; 110.0; 201.321;  17.000;   0.000; 90;
86.2000;  96.0000;2; 238.426; 274.912;2005.10.06 12:00:00; -16.6;1009.8;   3.0; 360.0; 201.321;  17.250;   0.000; 90;
86.2000;  95.3000;2; 237.928; 274.961;2005.10.06 18:00:00; -17.6;1010.3;   3.0;  10.0; 206.479;  17.500;   0.860;270;
86.2000;  95.3000;2; 237.928; 274.961;2005.10.07 00:00:00; -17.5;1011.8;   3.0; 350.0; 206.480;  17.750;   0.000; 90;
86.2000;  95.3000;2; 237.928; 274.961;2005.10.07 06:00:00; -15.4;1012.5;   3.0; 350.0; 206.480;  18.000;   0.000; 90;
86.2000;  95.3000;2; 237.928; 274.961;2005.10.07 12:00:00; -17.9;1013.4;   3.0;  10.0; 206.480;  18.250;   0.000; 90;
86.2000;  94.8000;2; 237.572; 274.992;2005.10.07 18:00:00; -22.1;1013.0;   4.0; 340.0; 210.164;  18.500;   0.614;270;
86.2000;  94.8000;2; 237.572; 274.992;2005.10.08 00:00:00; -21.1;1011.9;   3.0; 340.0; 210.165;  18.750;   0.000; 90;
86.2000;  94.8000;2; 237.572; 274.992;2005.10.08 06:00:00; -16.5;1011.4;   3.0; 350.0; 210.165;  19.000;   0.000; 90;
86.2000;  94.8000;2; 237.572; 274.992;2005.10.08 12:00:00; -15.3;1012.7;   4.0; 350.0; 210.165;  19.250;   0.000; 90;
86.2000;  94.2000;2; 237.144; 275.026;2005.10.08 18:00:00; -13.6;1012.9;   4.0;  10.0; 214.587;  19.500;   0.737;270;
86.2000;  94.2000;2; 237.144; 275.026;2005.10.09 00:00:00; -12.6;1012.5;   3.0;  20.0; 214.587;  19.750;   0.000; 90;
86.2000;  94.2000;2; 237.144; 275.026;2005.10.09 06:00:00; -12.5;1010.2;   2.0;  80.0; 214.587;  20.000;   0.000; 90;
86.2000;  94.2000;2; 237.144; 275.026;2005.10.09 12:00:00;  -9.4;1007.8;   3.0;  90.0; 214.587;  20.250;   0.000; 90;
86.2000;  93.5000;2; 236.644; 275.060;2005.10.09 18:00:00; -11.7;1003.9;   4.0;  90.0; 219.745;  20.500;   0.860;270;
86.2000;  93.5000;2; 236.644; 275.060;2005.10.10 00:00:00; -14.6;1000.3;   4.0;  90.0; 219.746;  20.750;   0.000; 90;
86.2000;  93.5000;2; 236.644; 275.060;2005.10.10 06:00:00; -13.1; 995.9;   3.0;  90.0; 219.746;  21.000;   0.000; 90;
86.2000;  93.5000;2; 236.644; 275.060;2005.10.10 12:00:00; -12.1; 993.9;   3.0;  80.0; 219.746;  21.250;   0.000; 90;
86.2000;  92.5000;2; 235.929; 275.097;2005.10.10 18:00:00;  -7.9; 992.1;   5.0;  70.0; 227.115;  21.500;   1.228;270;
86.2000;  92.5000;2; 235.929; 275.097;2005.10.11 00:00:00;  -6.8; 993.5;   5.0;  50.0; 227.115;  21.750;   0.000; 90;
86.2000;  92.5000;2; 235.929; 275.097;2005.10.11 06:00:00;  -7.4; 992.9;   5.0;  30.0; 227.115;  22.000;   0.000; 90;
86.2000;  92.5000;2; 235.929; 275.097;2005.10.11 12:00:00; -15.0; 992.7;   3.0; 340.0; 227.115;  22.250;   0.000; 90;
86.2000;  91.7000;2; 235.357; 275.118;2005.10.11 18:00:00; -15.4; 990.7;   3.0; 340.0; 233.011;  22.500;   0.983;270;
86.2000;  91.7000;2; 235.357; 275.118;2005.10.12 00:00:00; -16.2; 990.2;   2.0; 350.0; 233.011;  22.750;   0.000; 90;
86.2000;  91.7000;2; 235.357; 275.118;2005.10.12 06:00:00;  -9.8; 987.7;   7.0; 340.0; 233.011;  23.000;   0.000; 90;
86.2000;  91.7000;2; 235.357; 275.118;2005.10.12 12:00:00;  -7.2; 983.9;  13.0; 340.0; 233.011;  23.250;   0.000; 90;
86.1000;  90.3000;2; 234.361; 276.215;2005.10.12 18:00:00;  -5.6; 981.0;  11.0; 360.0; 248.271;  23.500;   2.543;223;
86.1000;  90.3000;2; 234.361; 276.215;2005.10.13 00:00:00;  -3.5; 982.3;   7.0;  40.0; 248.271;  23.750;   0.000; 90;
86.1000;  90.3000;2; 234.361; 276.215;2005.10.13 06:00:00;  -5.6; 981.8;   9.0;  20.0; 248.271;  24.000;   0.000; 90;
86.1000;  90.3000;2; 234.361; 276.215;2005.10.13 12:00:00;  -5.0; 982.2;  11.0;  40.0; 248.271;  24.250;   0.000; 90;
86.1000;  90.3000;2; 234.361; 276.215;2005.10.13 18:00:00;  -5.6; 984.6;  12.0;  50.0; 248.271;  24.500;   0.000; 90;
86.0000;  88.1000;2; 232.710; 277.272;2005.10.14 00:00:00; -12.7; 995.1;   7.0;  30.0; 268.459;  24.750;   3.365;237;
86.0000;  88.1000;2; 232.710; 277.272;2005.10.14 06:00:00;  -9.6; 999.4;   8.0;  20.0; 268.459;  25.000;   0.000; 90;
86.0000;  88.1000;2; 232.710; 277.272;2005.10.14 12:00:00; -11.2;1002.9;   7.0;  20.0; 268.459;  25.250;   0.000; 90;
86.0000;  86.4000;2; 231.431; 277.210;2005.10.14 18:00:00; -13.0;1006.1;   6.0;  20.0; 281.644;  25.500;   2.198;270;
86.0000;  86.4000;2; 231.431; 277.210;2005.10.15 00:00:00; -13.8;1008.1;   5.0;  20.0; 281.644;  25.750;   0.000; 90;
86.0000;  86.4000;2; 231.431; 277.210;2005.10.15 06:00:00; -14.1;1010.2;   5.0;  30.0; 281.644;  26.000;   0.000; 90;
86.0000;  86.4000;2; 231.431; 277.210;2005.10.15 12:00:00; -13.6;1013.9;   6.0;  40.0; 281.644;  26.250;   0.000; 90;
86.0000;  85.2000;2; 230.530; 277.144;2005.10.15 18:00:00; -10.0;1016.0;   6.0;  30.0; 290.952;  26.500;   1.551;270;
86.0000;  85.2000;2; 230.530; 277.144;2005.10.16 00:00:00; -12.1;1017.9;   7.0;  20.0; 290.952;  26.750;   0.000; 90;
86.0000;  85.2000;2; 230.530; 277.144;2005.10.16 06:00:00; -12.2;1018.8;   5.0;  20.0; 290.952;  27.000;   0.000; 90;
86.0000;  85.2000;2; 230.530; 277.144;2005.10.16 12:00:00; -15.2;1017.9;   6.0; 360.0; 290.952;  27.250;   0.000; 90;
85.9000;  84.2000;2; 229.671; 278.149;2005.10.16 18:00:00; -18.9;1014.5;   8.0; 330.0; 304.565;  27.500;   2.269;215;
85.9000;  84.2000;2; 229.671; 278.149;2005.10.17 00:00:00; -15.2;1008.6;   8.0; 330.0; 304.565;  27.750;   0.000; 90;
85.9000;  84.2000;2; 229.671; 278.149;2005.10.17 06:00:00; -14.1;1004.6;   8.0; 340.0; 304.565;  28.000;   0.000; 90;
85.9000;  84.2000;2; 229.671; 278.149;2005.10.17 12:00:00; -10.0;1003.0;   6.0;  10.0; 304.565;  28.250;   0.000; 90;
85.8000;  83.3000;2; 228.854; 279.146;2005.10.17 18:00:00;  -3.5;1004.2;   7.0; 120.0; 317.835;  28.500;   2.212;213;
85.8000;  83.3000;2; 228.854; 279.146;2005.10.18 00:00:00;  -9.7;1011.3;   7.0; 140.0; 317.835;  28.750;   0.000; 90;
85.8000;  83.3000;2; 228.854; 279.146;2005.10.18 06:00:00; -17.2;1019.2;   3.0; 150.0; 317.835;  29.000;   0.000; 90;
85.8000;  83.3000;2; 228.854; 279.146;2005.10.18 12:00:00; -16.4;1023.4;   4.0; 210.0; 317.835;  29.250;   0.000; 90;
85.8000;  82.6000;2; 228.305; 279.078;2005.10.18 18:00:00; -22.6;1027.1;   3.0; 240.0; 323.535;  29.500;   0.950;270;
85.8000;  82.6000;2; 228.305; 279.078;2005.10.19 00:00:00; -22.7;1029.0;   3.0; 260.0; 323.535;  29.750;   0.000; 90;
85.8000;  82.6000;2; 228.305; 279.078;2005.10.19 06:00:00; -21.8;1028.3;   3.0; 270.0; 323.535;  30.000;   0.000; 90;
85.8000;  82.6000;2; 228.305; 279.078;2005.10.19 12:00:00; -16.3;1026.8;   6.0; 270.0; 323.535;  30.250;   0.000; 90;
85.8000;  83.1000;2; 228.697; 279.127;2005.10.19 18:00:00; -11.1;1025.8;   7.0; 310.0; 327.607;  30.500;   0.679; 90;
85.8000;  83.1000;2; 228.697; 279.127;2005.10.20 00:00:00; -18.0;1026.2;   3.0;  20.0; 327.607;  30.750;   0.000; 90;
85.8000;  83.1000;2; 228.697; 279.127;2005.10.20 06:00:00; -24.5;1024.4;   2.0;  60.0; 327.607;  31.000;   0.000; 90;
85.8000;  83.1000;2; 228.697; 279.127;2005.10.20 12:00:00; -17.7;1020.8;   2.0; 180.0; 327.607;  31.250;   0.000; 90;
85.8000;  82.9000;2; 228.540; 279.108;2005.10.20 18:00:00; -13.6;1017.0;   3.0; 250.0; 329.236;  31.500;   0.271;270;
85.8000;  82.9000;2; 228.540; 279.108;2005.10.21 00:00:00; -16.0;1014.9;   4.0; 280.0; 329.236;  31.750;   0.000; 90;
85.8000;  82.9000;2; 228.540; 279.108;2005.10.21 06:00:00; -18.1;1011.7;   1.0; 270.0; 329.236;  32.000;   0.000; 90;
85.8000;  82.9000;2; 228.540; 279.108;2005.10.21 12:00:00; -23.0;1010.6;   3.0;  70.0; 329.236;  32.250;   0.000; 90;
85.8000;  82.6000;2; 228.305; 279.078;2005.10.21 18:00:00; -26.9;1010.6;   4.0;  40.0; 331.679;  32.500;   0.407;270;
85.8000;  82.6000;2; 228.305; 279.078;2005.10.22 00:00:00; -28.0;1012.3;   4.0;  30.0; 331.679;  32.750;   0.000; 90;
85.8000;  82.6000;2; 228.305; 279.078;2005.10.22 06:00:00; -25.4;1012.3;   0.0;   0.0; 331.679;  33.000;   0.000; 90;
85.8000;  82.6000;2; 228.305; 279.078;2005.10.22 12:00:00; -22.2;1012.3;   2.0; 220.0; 331.679;  33.250;   0.000; 90;
85.8000;  82.3000;2; 228.070; 279.046;2005.10.22 18:00:00; -19.5;1012.7;   4.0; 160.0; 334.122;  33.500;   0.407;270;
85.8000;  82.3000;2; 228.070; 279.046;2005.10.23 00:00:00; -25.9;1016.7;   4.0; 120.0; 334.122;  33.750;   0.000; 90;
85.8000;  82.3000;2; 228.070; 279.046;2005.10.23 06:00:00; -32.1;1019.1;   3.0;  80.0; 334.122;  34.000;   0.000; 90;
85.8000;  82.3000;2; 228.070; 279.046;2005.10.23 12:00:00; -32.8;1019.2;   1.0; 340.0; 334.122;  34.250;   0.000; 90;
85.7000;  81.8000;2; 227.524; 280.061;2005.10.23 18:00:00; -20.8;1012.7;  10.0; 300.0; 345.981;  34.500;   1.976;200;
85.7000;  81.8000;2; 227.524; 280.061;2005.10.24 00:00:00; -16.1;1003.7;  11.0; 330.0; 345.981;  34.750;   0.000; 90;
85.7000;  81.8000;2; 227.524; 280.061;2005.10.24 06:00:00; -12.2; 996.9;   9.0; 340.0; 345.981;  35.000;   0.000; 90;
85.7000;  81.8000;2; 227.524; 280.061;2005.10.24 12:00:00; -11.7; 991.9;  10.0; 340.0; 345.981;  35.250;   0.000; 90;
85.5000;  81.6000;2; 227.048; 282.174;2005.10.24 18:00:00; -12.0; 987.9;  10.0; 340.0; 368.285;  35.500;   3.717;184;
85.5000;  81.6000;2; 227.048; 282.174;2005.10.25 00:00:00;  -9.0; 985.0;   8.0; 340.0; 368.285;  35.750;   0.000; 90;
85.5000;  81.6000;2; 227.048; 282.174;2005.10.25 06:00:00;  -9.0; 981.9;  10.0; 360.0; 368.285;  36.000;   0.000; 90;
85.5000;  81.6000;2; 227.048; 282.174;2005.10.25 12:00:00; -14.2; 980.2;  10.0; 350.0; 368.285;  36.250;   0.000; 90;
85.5000;  81.6000;2; 227.048; 282.174;2005.10.25 18:00:00; -14.0; 976.3;   6.0; 340.0; 368.285;  36.500;   0.000; 90;
85.4000;  81.1000;2; 226.462; 283.178;2005.10.26 00:00:00; -18.9; 976.7;   9.0;  20.0; 380.247;  36.750;   1.994;202;
85.4000;  81.1000;2; 226.462; 283.178;2005.10.26 06:00:00; -20.6; 978.9;   8.0;  40.0; 380.247;  37.000;   0.000; 90;
85.4000;  81.1000;2; 226.462; 283.178;2005.10.26 12:00:00; -20.1; 982.1;   7.0;  30.0; 380.247;  37.250;   0.000; 90;
85.4000;  80.2000;2; 225.693; 283.051;2005.10.26 18:00:00; -20.0; 985.4;   6.0;  70.0; 388.273;  37.500;   1.338;270;
85.4000;  80.2000;2; 225.693; 283.051;2005.10.27 00:00:00; -15.0; 989.0;   8.0; 120.0; 388.273;  37.750;   0.000; 90;
85.4000;  80.2000;2; 225.693; 283.051;2005.10.27 06:00:00; -16.8; 993.5;   8.0;  80.0; 388.273;  38.000;   0.000; 90;
85.4000;  80.2000;2; 225.693; 283.051;2005.10.27 06:00:00; -16.3; 997.0;   8.0;  80.0; 388.273;  38.000;   0.000; 90;
85.4000;  78.9000;2; 224.586; 282.847;2005.10.27 18:00:00; -19.2; 999.7;   5.0;  60.0; 399.865;  38.500;   0.966;270;
85.4000;  78.9000;2; 224.586; 282.847;2005.10.28 00:00:00; -17.9;1001.8;   4.0;  60.0; 399.865;  38.750;   0.000; 90;
85.4000;  78.9000;2; 224.586; 282.847;2005.10.28 06:00:00; -23.9;1002.9;   3.0;  30.0; 399.865;  39.000;   0.000; 90;
85.4000;  78.9000;2; 224.586; 282.847;2005.10.28 12:00:00; -25.1;1002.6;   3.0;  10.0; 399.865;  39.250;   0.000; 90;
85.4000;  78.3000;2; 224.076; 282.744;2005.10.28 18:00:00; -20.0;1000.9;   3.0; 340.0; 405.216;  39.500;   0.892;270;
85.4000;  78.3000;2; 224.076; 282.744;2005.10.29 00:00:00; -20.2; 998.7;   4.0; 330.0; 405.216;  39.750;   0.000; 90;
85.4000;  78.3000;2; 224.076; 282.744;2005.10.29 06:00:00; -23.6; 996.1;   5.0; 310.0; 405.216;  40.000;   0.000; 90;
85.4000;  78.3000;2; 224.076; 282.744;2005.10.29 12:00:00; -18.8; 993.4;   6.0; 330.0; 405.216;  40.250;   0.000; 90;
85.3000;  77.9000;2; 223.511; 283.729;2005.10.29 18:00:00; -19.7; 990.5;   7.0; 310.0; 416.905;  40.500;   1.948;198;
85.3000;  77.9000;2; 223.511; 283.729;2005.10.30 00:00:00; -21.7; 988.1;   7.0; 290.0; 416.905;  40.750;   0.000; 90;
85.3000;  77.9000;2; 223.511; 283.729;2005.10.30 06:00:00; -25.5; 986.6;   6.0; 290.0; 416.905;  41.000;   0.000; 90;
85.3000;  77.9000;2; 223.511; 283.729;2005.10.30 12:00:00; -23.0; 985.9;   6.0; 270.0; 416.905;  41.250;   0.000; 90;
85.3000;  77.9000;2; 223.511; 283.729;2005.10.30 18:00:00; -23.5; 986.3;   5.0; 260.0; 416.905;  41.500;   0.000; 90;
85.3000;  78.2000;2; 223.770; 283.784;2005.10.31 00:00:00; -23.9; 987.3;   4.0; 230.0; 419.639;  41.750;   0.456; 90;
85.3000;  78.2000;2; 223.770; 283.784;2005.10.31 06:00:00; -25.7; 989.5;   5.0; 220.0; 419.639;  42.000;   0.000; 90;
85.3000;  78.2000;2; 223.770; 283.784;2005.10.31 12:00:00; -26.0; 992.5;   4.0; 220.0; 419.639;  42.250;   0.000; 90;
85.3000;  78.2000;2; 223.770; 283.784;2005.10.31 18:00:00; -23.5; 995.1;   4.0; 250.0; 419.639;  42.500;   0.000; 90;
85.2000;  78.7000;2; 223.992; 284.932;2005.11.01 00:00:00; -28.6; 998.9;   4.0; 230.0; 431.674;  42.750;   2.006;158;
85.2000;  78.7000;2; 223.992; 284.932;2005.11.01 06:00:00; -30.7;1001.8;   4.0; 230.0; 431.674;  43.000;   0.000; 90;
85.2000;  78.7000;2; 223.992; 284.932;2005.11.01 12:00:00; -30.8;1005.1;   3.0; 220.0; 431.674;  43.250;   0.000; 90;
85.2000;  78.7000;2; 223.992; 284.932;2005.11.01 18:00:00; -31.5;1008.7;   3.0; 230.0; 431.674;  43.500;   0.000; 90;
85.2000;  78.9000;2; 224.170; 284.967;2005.11.02 00:00:00; -30.6;1013.0;   4.0; 210.0; 433.535;  43.750;   0.310; 90;
85.2000;  78.9000;2; 224.170; 284.967;2005.11.02 06:00:00; -30.2;1015.0;   3.0; 230.0; 433.535;  44.000;   0.000; 90;
85.2000;  78.9000;2; 224.170; 284.967;2005.11.02 12:00:00; -30.4;1019.5;   3.0; 230.0; 433.535;  44.250;   0.000; 90;
85.2000;  78.9000;2; 224.170; 284.967;2005.11.02 18:00:00; -30.7;1021.0;   3.0; 200.0; 433.535;  44.500;   0.000; 90;
85.2000;  79.2000;2; 224.436; 285.018;2005.11.03 00:00:00; -28.2;1021.1;   4.0; 160.0; 436.326;  44.750;   0.465; 90;
85.2000;  79.2000;2; 224.436; 285.018;2005.11.03 06:00:00; -27.6;1020.0;   5.0; 150.0; 436.326;  45.000;   0.000; 90;
85.2000;  79.2000;2; 224.436; 285.018;2005.11.03 12:00:00; -24.9;1018.8;   6.0; 130.0; 436.326;  45.250;   0.000; 90;
85.2000;  79.2000;2; 224.436; 285.018;2005.11.03 18:00:00; -23.0;1017.0;   6.0; 140.0; 436.326;  45.500;   0.000; 90;
85.3000;  79.3000;2; 224.725; 283.974;2005.11.04 00:00:00; -21.5;1014.5;   8.0; 140.0; 447.485;  45.750;   1.860;  5;
85.3000;  79.3000;2; 224.725; 283.974;2005.11.04 06:00:00; -20.7;1012.3;   8.0; 140.0; 447.485;  46.000;   0.000; 90;
85.3000;  79.3000;2; 224.725; 283.974;2005.11.04 12:00:00; -13.1;1010.9;  10.0; 140.0; 447.485;  46.250;   0.000; 90;
85.3000;  79.3000;2; 224.725; 283.974;2005.11.04 18:00:00; -10.8;1007.5;  11.0; 150.0; 447.485;  46.500;   0.000; 90;
85.4000;  79.6000;2; 225.181; 282.960;2005.11.05 00:00:00; -11.3;1006.3;  12.0; 160.0; 458.928;  46.750;   1.907; 14;
85.4000;  79.6000;2; 225.181; 282.960;2005.11.05 06:00:00; -11.8;1004.6;  10.0; 160.0; 458.928;  47.000;   0.000; 90;
85.4000;  79.6000;2; 225.181; 282.960;2005.11.05 12:00:00; -10.5;1000.7;  11.0; 150.0; 458.928;  47.250;   0.000; 90;
85.4000;  79.6000;2; 225.181; 282.960;2005.11.05 18:00:00; -12.6;1000.9;  12.0; 150.0; 458.928;  47.500;   0.000; 90;
85.6000;  80.1000;2; 225.979; 280.908;2005.11.06 00:00:00; -12.2;1002.5;  11.0; 150.0; 481.590;  47.750;   3.777; 11;
85.6000;  80.1000;2; 225.979; 280.908;2005.11.06 06:00:00; -11.4;1003.9;  10.0; 150.0; 481.590;  48.000;   0.000; 90;
85.6000;  80.1000;2; 225.979; 280.908;2005.11.06 12:00:00; -11.6;1005.3;  11.0; 160.0; 481.590;  48.250;   0.000; 90;
85.6000;  80.1000;2; 225.979; 280.908;2005.11.06 18:00:00; -11.0;1007.3;  13.0; 170.0; 481.590;  48.500;   0.000; 90;
85.7000;  80.6000;2; 226.564; 279.912;2005.11.07 00:00:00; -17.4;1013.4;   7.0; 300.0; 493.482;  48.750;   1.982; 21;
85.7000;  80.6000;2; 226.564; 279.912;2005.11.07 06:00:00; -25.4;1019.0;   2.0; 300.0; 493.482;  49.000;   0.000; 90;
85.7000;  80.6000;2; 226.564; 279.912;2005.11.07 12:00:00; -27.8;1021.9;   0.0;   0.0; 493.482;  49.250;   0.000; 90;
85.7000;  80.6000;2; 226.564; 279.912;2005.11.07 18:00:00; -28.2;1021.9;   3.0;  50.0; 493.482;  49.500;   0.000; 90;
85.8000;  80.9000;2; 226.974; 278.885;2005.11.08 00:00:00; -27.7;1021.1;   3.0;  40.0; 504.874;  49.750;   1.899; 13;
85.8000;  80.9000;2; 226.974; 278.885;2005.11.08 06:00:00; -23.5;1019.9;   2.0;  40.0; 504.874;  50.000;   0.000; 90;
85.8000;  80.9000;2; 226.974; 278.885;2005.11.08 12:00:00; -25.9;1019.9;   2.0;  60.0; 504.874;  50.250;   0.000; 90;